[[{"header":{"parameterUnit":"m.s-1","parameterCategory":2,"la1":30.2992,"la2":30.254,"lo1":-89.0895,"lo2":-89.0443,"dy":0.0025,"dx":0.0025,"nx":19,"ny":19,"refTime":"2026-03-12T03:00:00:Z","depth":"0","parameterNumber":2,"parameterNumberName":"U-component_of_CURRENTS"},"data":[0,0,0,-0.0993,-0.0993,-0.0991,-0.0991,-0.0978,-0.0978,0,0,0,0,0,0,0,0,0,0,0,-0.099,-0.099,-0.0993,-0.0993,-0.0991,-0.0991,-0.0979,-0.0978,0,0,0,0,0,0,0,0,0,0,0,-0.099,-0.099,-0.099,-0.0993,-0.0991,-0.0991,-0.0979,-0.0981,0,0,0,0,0,0,0,0,0,0,-0.0984,-0.0984,-0.099,-0.099,-0.0993,-0.0991,-0.0991,-0.0982,-0.0981,-0.0978,0,-0.0978,0,-0.0981,-0.0978,-0.0978,0,0,0,-0.0989,-0.0984,-0.0986,-0.099,-0.0993,-0.0991,-0.099,-0.0981,-0.0981,-0.0978,-0.0978,-0.0978,-0.0981,-0.0978,-0.0978,-0.0971,-0.0971,0,0,-0.0989,-0.0987,-0.0986,-0.0986,-0.0993,-0.0991,-0.099,-0.0981,-0.0979,-0.0978,-0.0978,-0.0981,-0.0978,-0.0978,-0.0971,-0.0971,0,0,0,-0.0992,-0.0987,-0.0989,-0.0986,-0.0988,-0.0991,-0.099,-0.098,-0.0981,-0.0978,-0.0981,-0.0978,-0.0977,-0.0971,-0.0971,-0.0973,0,0,0,-0.0992,-0.0989,-0.0989,-0.0987,-0.0988,-0.0985,-0.0989,-0.0982,-0.0981,-0.0981,-0.0978,-0.0977,-0.0971,-0.0971,-0.0973,-0.0972,0,0,0,-0.099,-0.0989,-0.0989,-0.0987,-0.0989,-0.0985,-0.0986,-0.0981,-0.0983,-0.0978,-0.0977,-0.0971,-0.0971,-0.0973,-0.0972,-0.0974,0,0,0,-0.0987,-0.0987,-0.0989,-0.099,-0.0989,-0.0992,-0.0986,-0.0984,-0.098,-0.0978,-0.0971,-0.0971,-0.0973,-0.0972,-0.0974,-0.0988,-0.0989,0,0,-0.0986,-0.0987,-0.0988,-0.099,-0.0992,-0.0992,-0.0991,-0.0983,-0.0979,-0.0973,-0.0973,-0.0973,-0.0972,-0.0974,-0.0988,-0.099,0,0,0,-0.0987,-0.0985,-0.0987,-0.0988,-0.0993,-0.0992,-0.0988,-0.0985,-0.0977,-0.0977,-0.0973,-0.0972,-0.0973,-0.0981,-0.0983,-0.1041,-0.0971,-0.0971,-0.0971,-0.0978,-0.0982,-0.098,-0.0983,-0.0986,-0.099,-0.0988,-0.0983,-0.098,-0.0976,-0.0973,-0.0975,-0.0984,-0.0985,-0.1045,-0.0974,-0.0974,-0.0974,-0.0974,-0.0968,-0.0962,-0.097,-0.0968,-0.0974,-0.0974,-0.0981,-0.098,-0.0978,-0.0974,-0.0975,-0.0983,-0.0986,-0.105,-0.0974,-0.0974,-0.0974,-0.0974,-0.0974,-0.0953,-0.095,-0.0951,-0.0947,-0.095,-0.096,-0.0965,-0.0972,-0.0975,-0.0977,-0.0986,-0.0986,-0.1043,-0.0978,-0.0978,-0.0978,-0.0978,-0.0978,-0.0978,-0.0933,-0.0934,-0.0923,-0.0925,-0.0921,-0.0929,-0.0953,-0.0963,-0.0981,-0.0988,-0.0988,-0.1053,-0.0976,-0.0976,-0.0978,-0.0978,-0.0978,-0.0978,-0.0978,-0.0902,-0.0904,-0.0886,-0.0879,-0.0877,-0.0889,-0.0924,-0.0969,-0.0983,-0.0996,-0.1076,-0.0996,-0.0996,-0.0996,-0.0996,-0.1003,-0.1003,-0.1003,-0.1003,-0.0876,-0.0879,-0.0845,-0.0828,-0.0828,-0.0863,-0.092,-0.099,-0.1066,-0.1109,-0.112,-0.1133,-0.113,-0.1139,-0.1135,-0.1139,-0.1181,-0.1181,-0.1182,-0.0848,-0.0844,-0.0808,-0.0797,-0.0797,-0.0841,-0.0923,-0.1076,-0.1182,-0.1195,-0.12,-0.1192,-0.1217,-0.1206,-0.1224,-0.1214,-0.122,0,0]},{"header":{"parameterUnit":"m.s-1","parameterCategory":2,"la1":30.2992,"la2":30.254,"lo1":-89.0895,"lo2":-89.0443,"dy":0.0025,"dx":0.0025,"nx":19,"ny":19,"refTime":"2026-03-12T03:00:00:Z","depth":"0","parameterNumber":3,"parameterNumberName":"V-component_of_CURRENTS"},"data":[0,0,0,-0.0489,-0.0489,-0.0456,-0.0456,-0.0404,-0.0403,0,0,0,0,0,0,0,0,0,0,0,-0.0499,-0.0499,-0.0489,-0.0489,-0.0456,-0.0456,-0.0404,-0.0403,0,0,0,0,0,0,0,0,0,0,0,-0.0499,-0.0499,-0.0499,-0.0489,-0.0456,-0.0456,-0.0404,-0.0429,0,0,0,0,0,0,0,0,0,0,-0.0461,-0.0475,-0.0499,-0.0499,-0.0489,-0.0456,-0.0456,-0.043,-0.0427,-0.0418,0,-0.0418,0,-0.0414,-0.04,-0.04,0,0,0,-0.048,-0.0477,-0.047,-0.0499,-0.0489,-0.0456,-0.0468,-0.0429,-0.0426,-0.0415,-0.0417,-0.0415,-0.0413,-0.04,-0.04,-0.0369,-0.0369,0,0,-0.0482,-0.0489,-0.0473,-0.0469,-0.0486,-0.047,-0.0468,-0.0427,-0.0425,-0.0417,-0.0414,-0.0412,-0.04,-0.0399,-0.0369,-0.0369,0,0,0,-0.0493,-0.0491,-0.0484,-0.0471,-0.0468,-0.0469,-0.0467,-0.0426,-0.0425,-0.0413,-0.0411,-0.04,-0.0399,-0.0369,-0.0369,-0.0392,0,0,0,-0.0494,-0.0498,-0.0485,-0.0489,-0.0469,-0.0448,-0.0467,-0.0428,-0.0423,-0.0411,-0.04,-0.0399,-0.0369,-0.0369,-0.0392,-0.0408,0,0,0,-0.05,-0.0498,-0.0497,-0.0489,-0.0479,-0.0449,-0.0445,-0.0426,-0.0422,-0.04,-0.0398,-0.0369,-0.0369,-0.0391,-0.0407,-0.0408,0,0,0,-0.0504,-0.0506,-0.0497,-0.0497,-0.048,-0.0464,-0.0445,-0.0428,-0.0411,-0.0399,-0.0369,-0.0369,-0.0391,-0.0406,-0.0408,-0.0431,-0.0436,0,0,-0.0509,-0.0506,-0.0507,-0.0498,-0.0493,-0.0467,-0.0455,-0.0426,-0.0407,-0.038,-0.0379,-0.0392,-0.0407,-0.0408,-0.0429,-0.0434,0,0,0,-0.051,-0.0511,-0.0507,-0.0503,-0.0488,-0.0474,-0.0444,-0.0429,-0.0404,-0.0398,-0.0385,-0.0393,-0.0393,-0.0406,-0.041,-0.042,-0.0369,-0.0369,-0.0369,-0.052,-0.0516,-0.0519,-0.0512,-0.0501,-0.0474,-0.046,-0.0433,-0.0412,-0.0405,-0.0407,-0.0418,-0.0431,-0.0434,-0.0445,-0.0397,-0.0397,-0.0397,-0.0397,-0.0533,-0.0537,-0.0532,-0.0534,-0.052,-0.0507,-0.0474,-0.0457,-0.0434,-0.0419,-0.0417,-0.0423,-0.044,-0.0449,-0.0399,-0.0398,-0.0398,-0.0398,-0.0398,-0.0543,-0.0546,-0.0549,-0.0556,-0.0553,-0.0531,-0.0528,-0.0495,-0.0461,-0.0459,-0.046,-0.046,-0.0473,-0.0454,-0.0455,-0.0455,-0.0455,-0.0455,-0.0455,-0.0553,-0.0557,-0.0573,-0.0578,-0.0586,-0.0586,-0.0559,-0.0545,-0.0515,-0.049,-0.049,-0.048,-0.0435,-0.0438,-0.0456,-0.0456,-0.0456,-0.0456,-0.0455,-0.0563,-0.0571,-0.0594,-0.0609,-0.0632,-0.0666,-0.0631,-0.0611,-0.0579,-0.0569,-0.0535,-0.05,-0.0494,-0.0491,-0.0495,-0.0527,-0.0527,-0.0527,-0.0527,-0.0572,-0.0577,-0.0616,-0.0647,-0.0679,-0.0702,-0.0752,-0.0726,-0.0641,-0.0607,-0.057,-0.0566,-0.0562,-0.0559,-0.0554,-0.0559,-0.0606,-0.0607,-0.0607,-0.058,-0.0592,-0.0623,-0.066,-0.0704,-0.0755,-0.0838,-0.0867,-0.0718,-0.061,-0.058,-0.0577,-0.0569,-0.0563,-0.0555,-0.0548,-0.0553,0,0]}],[{"header":{"parameterUnit":"m.s-1","parameterCategory":2,"la1":30.2992,"la2":30.254,"lo1":-89.0895,"lo2":-89.0443,"dy":0.0025,"dx":0.0025,"nx":19,"ny":19,"refTime":"2026-03-12T03:00:00:Z","depth":"2","parameterNumber":2,"parameterNumberName":"U-component_of_CURRENTS"},"data":[0,0,0,-0.0928,-0.0928,-0.0928,-0.0928,-0.0917,-0.0917,0,0,0,0,0,0,0,0,0,0,0,-0.0925,-0.0925,-0.0928,-0.0928,-0.0928,-0.0928,-0.0917,-0.0917,0,0,0,0,0,0,0,0,0,0,0,-0.0925,-0.0925,-0.0925,-0.0928,-0.0928,-0.0928,-0.0917,-0.0919,0,0,0,0,0,0,0,0,0,0,-0.092,-0.0919,-0.0925,-0.0925,-0.0928,-0.0928,-0.0928,-0.0919,-0.0918,-0.0915,0,-0.0916,0,-0.0919,-0.0916,-0.0916,0,0,0,-0.0924,-0.092,-0.0922,-0.0925,-0.0928,-0.0928,-0.0927,-0.0919,-0.0918,-0.0914,-0.0916,-0.0915,-0.0919,-0.0916,-0.0916,-0.091,-0.091,0,0,-0.0924,-0.0923,-0.0922,-0.0921,-0.0929,-0.0927,-0.0927,-0.0918,-0.0917,-0.0916,-0.0915,-0.0918,-0.0916,-0.0916,-0.091,-0.091,0,0,0,-0.0927,-0.0923,-0.0925,-0.0922,-0.0924,-0.0927,-0.0927,-0.0917,-0.0919,-0.0915,-0.0918,-0.0916,-0.0916,-0.091,-0.091,-0.0912,0,0,0,-0.0927,-0.0925,-0.0925,-0.0923,-0.0924,-0.0922,-0.0926,-0.0919,-0.0918,-0.0918,-0.0916,-0.0916,-0.091,-0.091,-0.0912,-0.0912,0,0,0,-0.0925,-0.0924,-0.0925,-0.0923,-0.0926,-0.0923,-0.0923,-0.0919,-0.0921,-0.0916,-0.0915,-0.091,-0.091,-0.0912,-0.0912,-0.0914,0,0,0,-0.0922,-0.0923,-0.0925,-0.0926,-0.0926,-0.0928,-0.0923,-0.0922,-0.0918,-0.0916,-0.091,-0.091,-0.0912,-0.0912,-0.0914,-0.0921,-0.0922,0,0,-0.0922,-0.0922,-0.0923,-0.0926,-0.0927,-0.0928,-0.0927,-0.092,-0.0917,-0.0911,-0.0911,-0.0912,-0.0912,-0.0914,-0.0921,-0.0922,0,0,0,-0.0922,-0.0921,-0.0922,-0.0924,-0.0928,-0.0928,-0.0925,-0.0922,-0.0916,-0.0916,-0.0912,-0.0911,-0.0912,-0.0917,-0.0917,-0.091,-0.091,-0.091,-0.091,-0.0915,-0.0918,-0.0916,-0.0919,-0.0922,-0.0926,-0.0925,-0.092,-0.0918,-0.0915,-0.0913,-0.0915,-0.092,-0.0921,-0.0913,-0.0913,-0.0913,-0.0913,-0.0913,-0.0906,-0.09,-0.0907,-0.0904,-0.0911,-0.0911,-0.0918,-0.0918,-0.0917,-0.0914,-0.0915,-0.0919,-0.0922,-0.0914,-0.0914,-0.0914,-0.0913,-0.0913,-0.0913,-0.0892,-0.0888,-0.0889,-0.0886,-0.0889,-0.0899,-0.0905,-0.0912,-0.0916,-0.0919,-0.0923,-0.0923,-0.0917,-0.092,-0.092,-0.092,-0.092,-0.092,-0.092,-0.0873,-0.0874,-0.0864,-0.0866,-0.0862,-0.0871,-0.0895,-0.0905,-0.0921,-0.0926,-0.0926,-0.0917,-0.0917,-0.0918,-0.092,-0.092,-0.092,-0.092,-0.092,-0.0844,-0.0847,-0.0829,-0.0823,-0.082,-0.0824,-0.0865,-0.0907,-0.0921,-0.0932,-0.0931,-0.093,-0.093,-0.0929,-0.093,-0.0935,-0.0935,-0.0935,-0.0935,-0.082,-0.0822,-0.079,-0.0773,-0.0772,-0.0796,-0.0824,-0.0848,-0.0882,-0.0877,-0.0879,-0.0874,-0.0876,-0.0871,-0.0872,-0.0871,-0.0861,-0.086,-0.086,-0.0793,-0.0789,-0.0754,-0.0743,-0.0741,-0.0766,-0.0788,-0.0797,-0.0813,-0.0854,-0.083,-0.0937,-0.0937,-0.0937,-0.0936,-0.0935,-0.0936,0,0]},{"header":{"parameterUnit":"m.s-1","parameterCategory":2,"la1":30.2992,"la2":30.254,"lo1":-89.0895,"lo2":-89.0443,"dy":0.0025,"dx":0.0025,"nx":19,"ny":19,"refTime":"2026-03-12T03:00:00:Z","depth":"2","parameterNumber":3,"parameterNumberName":"V-component_of_CURRENTS"},"data":[0,0,0,-0.0407,-0.0406,-0.0377,-0.0376,-0.0325,-0.0325,0,0,0,0,0,0,0,0,0,0,0,-0.0416,-0.0416,-0.0407,-0.0406,-0.0377,-0.0376,-0.0325,-0.0325,0,0,0,0,0,0,0,0,0,0,0,-0.0416,-0.0416,-0.0416,-0.0406,-0.0377,-0.0376,-0.0325,-0.0349,0,0,0,0,0,0,0,0,0,0,-0.0378,-0.0392,-0.0416,-0.0416,-0.0406,-0.0377,-0.0376,-0.035,-0.0347,-0.0338,0,-0.0338,0,-0.0334,-0.0322,-0.0322,0,0,0,-0.0397,-0.0395,-0.0388,-0.0416,-0.0406,-0.0377,-0.0388,-0.0349,-0.0346,-0.0334,-0.0337,-0.0336,-0.0334,-0.0322,-0.0321,-0.0292,-0.0292,0,0,-0.0399,-0.0407,-0.039,-0.0387,-0.0405,-0.0389,-0.0387,-0.0347,-0.0345,-0.0337,-0.0334,-0.0333,-0.0321,-0.0321,-0.0292,-0.0292,0,0,0,-0.041,-0.0408,-0.0402,-0.0389,-0.0387,-0.0388,-0.0386,-0.0347,-0.0346,-0.0334,-0.0332,-0.0321,-0.032,-0.0292,-0.0292,-0.0316,0,0,0,-0.041,-0.0415,-0.0403,-0.0407,-0.0388,-0.0369,-0.0387,-0.0348,-0.0344,-0.0332,-0.0321,-0.032,-0.0292,-0.0292,-0.0316,-0.0331,0,0,0,-0.0416,-0.0415,-0.0414,-0.0407,-0.0399,-0.0369,-0.0365,-0.0347,-0.0343,-0.0322,-0.032,-0.0292,-0.0292,-0.0315,-0.033,-0.033,0,0,0,-0.0421,-0.0424,-0.0414,-0.0416,-0.0399,-0.0384,-0.0365,-0.035,-0.0334,-0.0321,-0.0292,-0.0292,-0.0315,-0.0329,-0.033,-0.0347,-0.0352,0,0,-0.0427,-0.0425,-0.0426,-0.0417,-0.0413,-0.0387,-0.0376,-0.0348,-0.033,-0.0303,-0.0302,-0.0316,-0.033,-0.033,-0.0348,-0.0353,0,0,0,-0.043,-0.0432,-0.0428,-0.0424,-0.0409,-0.0396,-0.0367,-0.0352,-0.0328,-0.0322,-0.0309,-0.0317,-0.0317,-0.0326,-0.0329,-0.0292,-0.0292,-0.0292,-0.0292,-0.0443,-0.0438,-0.0442,-0.0434,-0.0424,-0.0397,-0.0383,-0.0357,-0.0336,-0.0331,-0.0332,-0.0343,-0.0353,-0.0356,-0.0324,-0.0324,-0.0324,-0.0324,-0.0324,-0.0457,-0.0462,-0.0456,-0.0459,-0.0444,-0.0432,-0.0398,-0.0382,-0.0359,-0.0345,-0.0343,-0.0345,-0.0361,-0.0326,-0.0325,-0.0325,-0.0325,-0.0325,-0.0325,-0.0469,-0.0472,-0.0476,-0.0482,-0.0479,-0.0457,-0.0453,-0.042,-0.0386,-0.0384,-0.0381,-0.0381,-0.0359,-0.038,-0.038,-0.038,-0.038,-0.038,-0.038,-0.0481,-0.0485,-0.0501,-0.0506,-0.0514,-0.0513,-0.0485,-0.047,-0.0436,-0.0411,-0.0411,-0.0362,-0.036,-0.0362,-0.0381,-0.0381,-0.0381,-0.0381,-0.0381,-0.0493,-0.0501,-0.0524,-0.0538,-0.056,-0.0582,-0.0554,-0.053,-0.0498,-0.0485,-0.0419,-0.0418,-0.041,-0.0407,-0.041,-0.044,-0.044,-0.044,-0.044,-0.0503,-0.0508,-0.0546,-0.0576,-0.0606,-0.0615,-0.0635,-0.0569,-0.049,-0.0434,-0.0434,-0.0426,-0.0424,-0.0416,-0.0412,-0.0415,-0.0446,-0.0446,-0.0446,-0.0511,-0.0523,-0.0553,-0.0589,-0.0629,-0.0657,-0.0681,-0.0595,-0.046,-0.0444,-0.0411,-0.0445,-0.0433,-0.043,-0.0416,-0.0412,-0.0415,0,0]}],[{"header":{"parameterUnit":"m.s-1","parameterCategory":2,"la1":30.2992,"la2":30.254,"lo1":-89.0895,"lo2":-89.0443,"dy":0.0025,"dx":0.0025,"nx":19,"ny":19,"refTime":"2026-03-12T03:00:00:Z","depth":"4","parameterNumber":2,"parameterNumberName":"U-component_of_CURRENTS"},"data":[0,0,0,-0.0633,-0.0633,-0.0669,-0.0669,-0.0696,-0.0696,0,0,0,0,0,0,0,0,0,0,0,-0.0622,-0.0622,-0.0633,-0.0633,-0.0669,-0.0669,-0.0696,-0.0696,0,0,0,0,0,0,0,0,0,0,0,-0.0622,-0.0622,-0.0622,-0.0634,-0.0669,-0.0669,-0.0696,-0.0674,0,0,0,0,0,0,0,0,0,0,-0.0642,-0.0637,-0.0622,-0.0622,-0.0634,-0.0669,-0.0669,-0.0673,-0.0675,-0.0674,0,-0.0682,0,-0.0688,-0.0698,-0.0698,0,0,0,-0.0635,-0.0635,-0.0641,-0.0622,-0.0634,-0.0669,-0.0653,-0.0675,-0.0677,-0.0677,-0.0682,-0.0683,-0.0688,-0.0698,-0.0698,-0.0715,-0.0715,0,0,-0.0633,-0.0631,-0.064,-0.0643,-0.0646,-0.0652,-0.0655,-0.0676,-0.0681,-0.0682,-0.0684,-0.0689,-0.0698,-0.0698,-0.0715,-0.0715,0,0,0,-0.0626,-0.0629,-0.0636,-0.0642,-0.0649,-0.0653,-0.0656,-0.068,-0.0682,-0.0684,-0.0689,-0.0698,-0.0698,-0.0715,-0.0715,-0.0718,0,0,0,-0.0625,-0.0625,-0.0635,-0.0635,-0.0649,-0.0668,-0.0659,-0.068,-0.0683,-0.0689,-0.0698,-0.0698,-0.0714,-0.0715,-0.0717,-0.0716,0,0,0,-0.062,-0.0625,-0.0629,-0.0634,-0.0649,-0.0668,-0.0671,-0.0681,-0.0686,-0.0698,-0.0698,-0.0714,-0.0715,-0.0717,-0.0716,-0.072,0,0,0,-0.0616,-0.0621,-0.0629,-0.0638,-0.0648,-0.0666,-0.0671,-0.0689,-0.07,-0.0698,-0.0714,-0.0715,-0.0717,-0.0716,-0.0719,-0.0658,0,0,0,-0.0617,-0.0621,-0.0625,-0.0633,-0.0646,-0.0661,-0.0677,-0.0694,-0.0699,-0.0706,-0.0707,-0.0717,-0.0716,-0.072,-0.0665,0,0,0,0,-0.0622,-0.0624,-0.063,-0.0642,-0.0657,-0.0673,-0.0691,-0.0697,-0.071,-0.0706,-0.0719,-0.0718,-0.072,-0.0684,-0.0715,-0.0715,-0.0715,-0.0715,-0.0715,-0.0616,-0.0624,-0.0631,-0.0643,-0.0658,-0.0683,-0.0695,-0.0707,-0.0713,-0.0718,-0.0721,-0.0727,-0.0689,-0.0724,-0.0724,-0.0724,-0.0724,-0.0724,-0.0724,-0.0608,-0.0606,-0.0627,-0.0636,-0.0658,-0.0676,-0.0699,-0.0709,-0.0722,-0.0724,-0.0726,-0.0691,-0.0724,-0.0724,-0.0724,-0.0724,-0.0724,-0.0724,-0.0724,-0.059,-0.059,-0.0605,-0.0621,-0.0644,-0.0672,-0.0687,-0.0709,-0.0723,-0.0729,-0.0693,-0.0729,-0.0728,-0.0733,-0.0733,-0.0733,-0.0733,-0.0733,-0.0733,-0.0562,-0.0575,-0.0581,-0.0605,-0.0617,-0.0642,-0.0682,-0.0693,-0.0716,-0.0688,-0.0732,-0.073,-0.073,-0.0728,-0.0733,-0.0733,-0.0733,-0.0733,-0.0733,-0.0526,-0.0541,-0.0542,-0.0553,-0.0579,-0.0591,-0.0644,-0.0657,-0.0663,-0.0651,-0.0665,-0.0668,-0.0661,-0.0662,-0.0658,-0.0643,-0.0642,-0.0641,0,-0.05,-0.0507,-0.0504,-0.0509,-0.0516,-0.0556,-0.0556,-0.0583,-0.0605,-0.0585,-0.0656,-0.067,-0.0672,-0.0664,-0.0664,-0.0658,0,0,0,-0.0474,-0.0478,-0.0463,-0.0475,-0.0481,-0.0505,-0.0551,-0.0545,-0.0602,-0.0598,-0.0621,-0.0627,-0.07,-0.0734,-0.0731,-0.0731,-0.0728,0,0]},{"header":{"parameterUnit":"m.s-1","parameterCategory":2,"la1":30.2992,"la2":30.254,"lo1":-89.0895,"lo2":-89.0443,"dy":0.0025,"dx":0.0025,"nx":19,"ny":19,"refTime":"2026-03-12T03:00:00:Z","depth":"4","parameterNumber":3,"parameterNumberName":"V-component_of_CURRENTS"},"data":[0,0,0,-0.018,-0.018,-0.0176,-0.0176,-0.0153,-0.0153,0,0,0,0,0,0,0,0,0,0,0,-0.0182,-0.0182,-0.018,-0.018,-0.0176,-0.0176,-0.0153,-0.0153,0,0,0,0,0,0,0,0,0,0,0,-0.0182,-0.0182,-0.0183,-0.018,-0.0176,-0.0176,-0.0153,-0.0159,0,0,0,0,0,0,0,0,0,0,-0.0165,-0.0173,-0.0182,-0.0183,-0.018,-0.0176,-0.0176,-0.0159,-0.0159,-0.0152,0,-0.0157,0,-0.0156,-0.0151,-0.0151,0,0,0,-0.0174,-0.0174,-0.0172,-0.0183,-0.018,-0.0176,-0.0176,-0.0159,-0.0158,-0.0151,-0.0156,-0.0156,-0.0156,-0.0151,-0.0151,-0.0148,-0.0148,0,0,-0.0174,-0.018,-0.0173,-0.0172,-0.0186,-0.0176,-0.0176,-0.0159,-0.016,-0.0156,-0.0155,-0.0156,-0.0151,-0.0151,-0.0148,-0.0148,0,0,0,-0.0179,-0.018,-0.0179,-0.0173,-0.0175,-0.0176,-0.0176,-0.0161,-0.0161,-0.0155,-0.0155,-0.0151,-0.0151,-0.0148,-0.0148,-0.0167,0,0,0,-0.0179,-0.0183,-0.0179,-0.0182,-0.0175,-0.0171,-0.0179,-0.0162,-0.016,-0.0155,-0.0151,-0.015,-0.0147,-0.0148,-0.0166,-0.0175,0,0,0,-0.0181,-0.0183,-0.0185,-0.0182,-0.0183,-0.0171,-0.017,-0.0162,-0.0161,-0.0151,-0.015,-0.0147,-0.0148,-0.0165,-0.0174,-0.0167,0,0,0,-0.0183,-0.0192,-0.0185,-0.0196,-0.0183,-0.0186,-0.017,-0.017,-0.0164,-0.0151,-0.0148,-0.0148,-0.0165,-0.0173,-0.0167,-0.017,0,0,0,-0.0196,-0.0194,-0.0201,-0.0194,-0.0203,-0.0185,-0.019,-0.0176,-0.0165,-0.0151,-0.0151,-0.0166,-0.0173,-0.0167,-0.0186,0,0,0,0,-0.0205,-0.021,-0.0212,-0.0216,-0.0213,-0.0207,-0.0194,-0.0184,-0.0174,-0.0164,-0.0167,-0.0171,-0.0166,-0.0166,-0.0149,-0.0149,-0.0149,-0.0149,-0.0149,-0.0221,-0.0222,-0.0234,-0.0234,-0.0234,-0.0222,-0.0214,-0.0198,-0.0187,-0.0187,-0.0186,-0.0196,-0.0198,-0.0186,-0.0186,-0.0186,-0.0186,-0.0187,-0.0187,-0.024,-0.0245,-0.0249,-0.0262,-0.0256,-0.0257,-0.0234,-0.0223,-0.0207,-0.0201,-0.0195,-0.0187,-0.0188,-0.0188,-0.0188,-0.0188,-0.0187,-0.0187,-0.0187,-0.0247,-0.025,-0.0263,-0.028,-0.0288,-0.0279,-0.0275,-0.0254,-0.0227,-0.0224,-0.0213,-0.0203,-0.02,-0.0219,-0.0219,-0.0219,-0.0219,-0.0219,-0.0219,-0.0245,-0.0258,-0.0278,-0.0296,-0.031,-0.0316,-0.0299,-0.0282,-0.0252,-0.0234,-0.0229,-0.0206,-0.0205,-0.0202,-0.022,-0.022,-0.022,-0.022,-0.0219,-0.0244,-0.0257,-0.0283,-0.0304,-0.0336,-0.034,-0.0329,-0.0291,-0.0271,-0.0244,-0.0231,-0.0231,-0.0221,-0.0219,-0.0216,-0.0238,-0.0238,-0.0238,0,-0.0242,-0.025,-0.0288,-0.0321,-0.0346,-0.0351,-0.0334,-0.031,-0.0267,-0.0267,-0.0264,-0.0252,-0.025,-0.0241,-0.0239,-0.0237,0,0,0,-0.024,-0.0253,-0.0278,-0.0318,-0.0352,-0.0338,-0.0328,-0.0313,-0.0279,-0.0254,-0.0241,-0.024,-0.0238,-0.022,-0.0203,-0.0201,-0.0195,0,0]}]]